Location: Melara
(45.0500°N, 11.1833°E)
Time: 20:39:14
(UTC+00:00)

USA 267 - Pass Details

Date: 26 May 2022
Orbit: 1101 x 1106 km, 123.0° (Epoch: 28 June)

Event Time Altitude Azimuth Distance (km) Brightness Sun altitude
Exits shadow 01:02:05 25° 240° (WSW) 2,064 4.2 -19.3°
Drops below altitude 10° 01:06:59 10° 288° (WNW) 2,962 5.4 -18.9°
Sets 01:10:00 0° 302° (WNW) 3,924 6.2 -18.6°
